TimeEST,TemperatureF,Dew PointF,Humidity,Sea Level PressureIn,VisibilityMPH,Wind Direction,Wind SpeedMPH,Gust SpeedMPH,PrecipitationIn,Events,Conditions,WindDirDegrees,DateUTC
12:53 AM,55.4,42.8,63,30.27,10.0,South,5.8,-,N/A,,Overcast,180,2011-11-20 05:53:00
1:53 AM,57.0,43.0,59,30.26,10.0,South,8.1,-,N/A,,Overcast,190,2011-11-20 06:53:00
2:53 AM,57.0,44.1,62,30.27,10.0,South,5.8,-,N/A,,Overcast,180,2011-11-20 07:53:00
3:29 AM,57.2,44.6,63,30.28,10.0,South,4.6,-,N/A,,Overcast,170,2011-11-20 08:29:00
3:53 AM,55.9,44.1,64,30.27,10.0,SW,3.5,-,N/A,,Overcast,220,2011-11-20 08:53:00
4:40 AM,55.4,44.6,67,30.28,10.0,Calm,Calm,-,N/A,,Mostly Cloudy,0,2011-11-20 09:40:00
4:53 AM,55.9,44.1,64,30.27,10.0,Calm,Calm,-,N/A,,Overcast,0,2011-11-20 09:53:00
5:53 AM,57.0,44.1,62,30.27,10.0,Calm,Calm,-,N/A,,Overcast,0,2011-11-20 10:53:00
6:53 AM,55.9,44.1,64,30.28,10.0,South,3.5,-,N/A,,Overcast,180,2011-11-20 11:53:00
7:53 AM,57.0,45.0,64,30.29,10.0,South,4.6,-,N/A,,Overcast,170,2011-11-20 12:53:00
8:53 AM,57.2,46.4,67,30.31,10.0,SSW,5.8,-,N/A,,Overcast,200,2011-11-20 13:53:00
9:00 AM,57.2,46.4,67,30.31,10.0,SSW,6.9,-,N/A,,Overcast,210,2011-11-20 14:00:00
9:53 AM,57.9,50.0,75,30.31,10.0,SSW,5.8,-,N/A,,Overcast,200,2011-11-20 14:53:00
10:53 AM,59.0,53.1,81,30.30,10.0,SSW,6.9,-,N/A,,Overcast,200,2011-11-20 15:53:00
11:53 AM,61.0,54.0,78,30.29,10.0,SSW,8.1,-,N/A,,Overcast,210,2011-11-20 16:53:00
12:44 PM,62.6,55.4,77,30.28,10.0,South,5.8,-,N/A,,Overcast,190,2011-11-20 17:44:00
12:53 PM,62.1,55.9,80,30.27,10.0,South,10.4,-,N/A,,Overcast,190,2011-11-20 17:53:00
1:53 PM,64.0,57.0,78,30.25,10.0,South,6.9,-,N/A,,Overcast,180,2011-11-20 18:53:00
2:53 PM,66.9,57.0,70,30.24,10.0,South,10.4,-,N/A,,Overcast,170,2011-11-20 19:53:00
3:53 PM,66.0,57.0,73,30.24,10.0,SE,6.9,-,N/A,,Overcast,140,2011-11-20 20:53:00
4:53 PM,63.0,59.0,87,30.24,5.0,South,4.6,-,0.03,Rain,Light Rain,170,2011-11-20 21:53:00
5:53 PM,62.1,59.0,90,30.25,5.0,Calm,Calm,-,0.00,,Mostly Cloudy,0,2011-11-20 22:53:00
6:53 PM,61.0,59.0,93,30.25,5.0,SSE,3.5,-,0.00,,Mostly Cloudy,160,2011-11-20 23:53:00
7:53 PM,61.0,59.0,93,30.25,6.0,Calm,Calm,-,N/A,,Mostly Cloudy,0,2011-11-21 00:53:00
8:53 PM,60.8,59.0,94,30.26,5.0,Calm,Calm,-,N/A,,Mostly Cloudy,0,2011-11-21 01:53:00
9:53 PM,61.0,59.0,93,30.26,4.0,North,10.4,-,N/A,,Overcast,350,2011-11-21 02:53:00
10:53 PM,60.8,59.0,94,30.26,4.0,ESE,3.5,-,N/A,Rain,Light Rain,120,2011-11-21 03:53:00
11:53 PM,61.0,59.0,93,30.25,5.0,Calm,Calm,-,0.00,,Overcast,0,2011-11-21 04:53:00